This is the latest recevied weather packets stored in our database for station/object KE8AFF-13. If no packets are shown the sender has not sent any weather packets the latest 1 day(s).
| Time | Temp. | Humidity | Pressure | Rain* | Wind** | Luminosity | Snow |
|---|---|---|---|---|---|---|---|
| 1778035051 | 8.33° C | 99% | 1008.7 hPa | 1.78 mm | 2.24 m/s, 348° | 0 W/m² | - |
| 1778034749 | 8.33° C | 99% | 1009 hPa | 1.27 mm | 3.13 m/s, 351° | 0 W/m² | - |
| 1778034445 | 8.33° C | 99% | 1008.9 hPa | 1.27 mm | 2.24 m/s, 346° | 0 W/m² | - |
| 1778034143 | 8.33° C | 99% | 1008.8 hPa | 1.78 mm | 1.79 m/s, 330° | 0 W/m² | - |
| 1778033841 | 8.33° C | 99% | 1009.1 hPa | 3.05 mm | 2.24 m/s, 356° | 0 W/m² | - |
| 1778033538 | 8.33° C | 99% | 1008.6 hPa | 2.29 mm | 4.02 m/s, 343° | 0 W/m² | - |
| 1778033234 | 8.33° C | 99% | 1008.9 hPa | 3.05 mm | 2.68 m/s, 340° | 0 W/m² | - |
| 1778032933 | 8.89° C | 99% | 1008.8 hPa | 3.05 mm | 3.13 m/s, 6° | 0 W/m² | - |
| 1778032630 | 9.44° C | 99% | 1008.6 hPa | 4.32 mm | 2.24 m/s, 1° | 0 W/m² | - |
| 1778032327 | 9.44° C | 99% | 1008.7 hPa | 4.32 mm | 0.45 m/s, 279° | 0 W/m² | - |
| 1778032024 | 9.44° C | 99% | 1008.3 hPa | 3.05 mm | 1.34 m/s, 10° | 0 W/m² | - |
| 1778031720 | 9.44° C | 99% | 1008.3 hPa | 3.05 mm | 2.24 m/s, 329° | 0 W/m² | - |
| 1778031418 | 9.44° C | 99% | 1008 hPa | 3.05 mm | 1.79 m/s, 59° | 0 W/m² | - |
| 1778031115 | 9.44° C | 99% | 1008.2 hPa | 2.29 mm | 1.79 m/s, 333° | 0 W/m² | - |
| 1778030811 | 9.44° C | 99% | 1008 hPa | 1.78 mm | 2.68 m/s, 329° | 0 W/m² | - |
| 1778030508 | 9.44° C | 99% | 1007.8 hPa | 1.78 mm | 1.34 m/s, 305° | 0 W/m² | - |
| 1778030205 | 9.44° C | 99% | 1008 hPa | 1.78 mm | 2.68 m/s, 17° | 0 W/m² | - |
| 1778029901 | 9.44° C | 99% | 1007.7 hPa | 1.78 mm | 2.68 m/s, 285° | 0 W/m² | - |
| 1778029600 | 9.44° C | 99% | 1007.9 hPa | 1.78 mm | 1.79 m/s, 355° | 0 W/m² | - |
| 1778029297 | 10° C | 99% | 1007.9 hPa | 2.29 mm | 0.89 m/s, 235° | 0 W/m² | - |
| 1778028994 | 9.44° C | 99% | 1007.9 hPa | 2.29 mm | 0.45 m/s, 207° | 0 W/m² | - |
| 1778028691 | 10° C | 99% | 1007.5 hPa | 2.29 mm | 1.34 m/s, 62° | 0 W/m² | - |
| 1778028387 | 10° C | 99% | 1007.8 hPa | 3.05 mm | 1.79 m/s, 355° | 0 W/m² | - |
| 1778028084 | 10° C | 99% | 1007.9 hPa | 4.32 mm | 1.34 m/s, 304° | 0 W/m² | - |
| 1778027780 | 10° C | 99% | 1007.7 hPa | 7.87 mm | 1.34 m/s, 334° | 0 W/m² | - |
* Rain latest hour (hover to see other rain measurements)
** Current wind speed in m/s (hover to see current wind gust speed)